User: anonymous   Login
Location: Assche-ter-Heiden
(50.9174°N, 4.1574°E)
Time: 23:05:39
(UTC+00:00)
Language:

STARLINK-53 - Orbit

View from above orbital plane
View from above orbital plane
View from above satellite
View from above satellite

Ground track
Ground track

The orbit data is extracted from the following two-line orbital elements,

1 44294C 19029BM  20093.85772681  .00005196  00000-0  29761-3 0   936
2 44294  52.9985 192.6118 0001521 121.0013 337.6223 15.12108479    13
Epoch (UTC): 02 April 2020 20:35:07
Eccentricity: 0.0001521
inclination: 52.9985°
perigee height: 529 km
apogee height: 531 km
right ascension of ascending node: 192.6118°
argument of perigee: 121.0013°
revolutions per day: 15.12108479
mean anomaly at epoch: 337.6223°
orbit number at epoch: 1

The dashed part of the orbit path shows where the satellite is in the earth's shadow,  

DLR